Wind_Speed
12 12 12 13 13 14 14 14 14 14 15 15 15 15 15 14 14 14 14 13 13 13 12 12 11 10 10 11 10 10 9 9 8 8 7 6 6 5 5 6 6 7 8
13 12 12 12 13 13 14 15 15 15 16 16 15 14 14 15 15 14 14 14 13 13 12 12 11 10 10 11 11 10 9 9 9 8 8 7 7 6 6 6 7 8 8
13 13 13 13 12 12 13 15 15 15 15 16 15 14 13 13 13 13 14 14 14 13 13 13 12 11 11 11 11 10 10 9 9 9 8 8 7 7 7 7 7 8 8
13 13 14 13 13 13 13 14 15 14 14 15 15 13 12 13 12 13 14 14 13 13 13 13 13 12 12 11 11 11 11 10 10 9 9 8 7 7 7 7 7 8 8
12 13 14 14 14 13 13 13 15 15 14 14 15 14 13 13 13 13 14 13 13 13 13 13 13 12 12 11 11 11 12 11 11 10 9 9 8 8 7 7 8 8 8
13 13 14 14 14 14 13 13 13 14 15 15 15 15 14 14 13 13 14 14 13 13 13 14 14 13 13 12 11 11 11 12 11 10 10 9 9 8 8 7 8 8 8
13 13 13 13 13 13 13 14 14 15 15 16 16 16 15 15 14 14 15 15 14 13 13 14 13 13 13 13 12 11 11 11 11 10 10 10 10 9 8 8 8 8 8
14 14 14 14 14 14 14 14 14 15 16 16 16 16 16 16 15 14 15 15 15 15 14 14 14 13 13 12 12 12 11 11 11 11 10 10 10 10 9 9 9 9 9
14 14 15 15 15 15 15 15 15 15 15 16 17 17 17 16 16 15 14 15 15 15 15 15 14 14 13 12 12 12 11 12 12 11 11 11 11 10 10 10 10 10 10
14 14 14 15 15 15 15 16 16 15 16 16 16 17 17 17 16 16 15 16 16 16 16 15 14 14 13 13 13 12 12 12 12 12 11 11 11 12 11 11 11 11 11
15 14 15 15 16 15 15 15 15 15 14 15 16 16 17 16 16 15 15 16 16 16 16 16 15 14 14 14 14 13 13 13 13 13 12 12 12 12 12 12 12 12 12
15 15 15 14 15 15 14 14 15 15 14 14 15 16 16 16 15 16 16 16 16 16 16 16 15 15 15 15 15 14 14 14 14 14 14 13 13 13 13 13 13 13 13
14 15 15 14 14 14 14 14 15 15 16 16 16 16 16 16 15 15 16 16 15 15 16 15 15 15 15 15 15 15 15 15 15 15 15 15 14 14 14 14 15 15 15
15 15 16 15 15 15 15 15 16 16 16 16 17 17 16 16 15 16 16 16 15 15 15 15 16 16 16 15 15 16 16 16 16 16 15 16 15 15 15 15 16 16 16
15 15 16 16 16 16 16 16 17 16 17 17 17 18 17 17 17 17 17 17 15 15 16 16 17 17 17 16 16 17 16 16 16 16 16 16 17 16 16 16 16 17 17
14 15 15 16 16 16 17 17 17 18 18 18 18 18 18 19 18 18 18 18 17 16 16 16 16 17 17 17 17 16 16 16 16 17 17 16 17 17 18 18 18 18 19
14 15 15 15 16 16 16 17 18 18 18 19 18 18 19 19 19 20 20 19 18 18 17 17 17 17 17 17 17 16 16 16 16 16 17 17 17 17 18 19 19 20 20
15 15 16 16 16 16 16 16 17 17 18 18 18 18 20 20 21 21 21 20 20 19 18 18 18 18 18 17 16 17 17 17 17 17 18 18 19 19 19 20 22 22 22
15 16 16 15 16 16 17 16 17 17 18 19 18 19 19 20 21 21 21 21 20 20 20 19 19 19 18 17 18 18 18 19 18 18 19 20 20 21 21 21 22 23 24
15 15 15 15 15 16 17 18 17 17 18 19 20 20 20 20 20 20 20 20 20 21 21 21 21 19 18 19 19 19 20 20 20 20 20 21 22 23 23 24 25 25 25
16 15 16 16 16 16 16 16 16 17 17 18 18 19 19 20 20 20 20 20 20 20 20 20 20 20 20 20 20 20 21 21 22 23 24 24 25 26 26 26 26 27 27
17 17 17 16 16 16 16 16 16 16 16 17 17 18 18 19 19 19 20 20 19 19 19 20 21 21 21 21 21 22 22 23 24 25 25 26 26 26 27 27 28 29 30
18 18 17 17 17 17 16 16 16 16 16 17 17 17 17 19 19 20 20 20 20 21 22 22 22 22 23 23 23 24 25 25 25 26 27 27 27 28 28 28 30 30 32
20 19 18 18 18 17 17 18 18 18 18 18 18 18 18 19 19 20 21 21 22 23 24 24 24 24 24 25 25 26 26 27 27 28 28 28 29 30 30 31 33 34 34
20 20 20 19 19 20 19 19 19 18 19 19 18 19 19 20 20 21 22 22 23 23 24 25 25 25 25 26 27 28 29 29 29 30 31 32 32 33 34 35 35 36 36
21 21 21 21 20 20 20 20 21 20 19 19 19 19 20 20 21 21 22 23 23 24 24 26 26 27 28 28 29 29 30 32 33 34 34 35 35 35 36 36 37 37 38
Wind_Direction
261 260 257 256 255 251 248 245 239 236 236 234 233 232 231 233 234 232 231 230 229 229 230 232 233 235 236 233 234 235 237 242 248 255 263 261 259 266 273 279 284 288 289
259 258 256 257 254 251 246 241 238 238 237 234 233 236 237 237 235 234 234 233 230 230 231 230 234 237 237 234 234 234 238 242 248 255 259 256 256 262 270 276 284 286 287
260 259 255 254 252 253 246 239 238 239 237 235 236 237 239 235 234 235 235 235 232 233 233 231 233 237 236 235 235 236 239 242 247 254 256 255 256 261 267 275 283 287 288
260 259 255 251 250 251 250 241 237 237 234 231 233 235 239 238 237 234 234 234 235 234 233 233 235 238 237 236 235 237 239 243 247 250 250 249 251 258 269 275 280 288 290
260 257 255 253 252 252 250 246 238 234 234 235 234 236 238 240 239 236 234 234 236 236 235 235 235 236 237 237 239 240 243 245 246 247 246 246 247 256 266 273 279 286 289
258 256 255 251 252 253 251 246 241 236 237 238 238 240 241 242 238 235 234 235 237 237 235 235 235 239 238 236 240 241 243 245 247 247 246 246 249 254 263 272 279 283 287
256 256 254 250 249 249 248 245 242 240 240 241 241 241 242 243 240 238 239 237 237 238 238 237 238 240 239 238 240 241 243 245 246 245 243 245 251 257 263 271 277 282 286
255 254 251 248 247 246 245 243 242 241 240 241 242 241 242 244 242 243 241 238 239 240 239 237 237 236 237 238 241 243 244 244 244 244 244 248 254 258 264 270 276 281 285
252 251 251 248 247 248 246 245 243 243 241 240 243 241 241 243 242 243 242 240 240 240 239 236 235 235 237 239 240 243 246 244 243 243 247 250 254 257 264 270 274 277 281
252 253 251 248 249 249 247 249 246 243 243 242 244 239 240 241 241 242 243 242 240 240 238 235 233 234 238 241 240 242 245 246 244 244 245 249 253 256 261 266 272 276 280
250 249 251 248 247 247 247 244 243 244 242 242 242 235 235 238 240 240 242 243 242 240 236 234 236 238 241 243 243 243 244 245 245 244 246 249 253 257 262 265 270 275 279
248 248 250 248 244 242 243 242 241 242 241 243 239 234 235 238 243 243 243 244 242 240 238 236 238 240 243 243 243 243 246 247 248 247 248 251 255 259 263 267 272 275 278
248 246 245 244 242 241 241 242 241 242 243 243 240 238 237 240 245 244 242 241 240 240 239 238 238 240 243 244 243 244 247 249 251 250 251 253 257 261 264 269 274 276 277
247 244 244 243 242 241 243 244 243 244 244 243 243 239 238 240 242 241 238 238 239 239 239 239 240 242 243 243 244 247 249 249 251 253 253 253 259 263 266 270 272 274 276
246 244 243 242 240 240 241 243 244 244 242 242 241 238 238 240 242 241 239 239 240 244 245 244 241 242 241 243 247 249 251 252 253 253 254 256 259 262 265 269 273 275 275
245 242 240 240 239 239 240 243 245 244 242 242 240 237 239 241 242 240 240 241 242 246 247 246 244 243 243 247 249 247 250 252 254 253 255 260 262 263 265 268 271 274 276
243 240 237 238 239 240 242 244 245 244 241 239 239 239 241 241 240 240 240 243 245 246 245 246 246 248 249 251 249 247 249 253 256 256 259 261 264 266 268 270 272 274 276
242 237 234 238 240 242 244 244 245 244 241 238 238 240 242 242 241 240 240 244 244 245 244 246 249 250 251 249 247 249 251 255 257 259 263 264 266 268 271 272 273 275 277
242 237 236 239 244 245 244 243 246 246 242 240 242 244 243 241 239 239 240 242 243 243 244 246 246 249 250 250 250 252 255 258 260 263 267 269 270 271 271 274 275 276 275
240 238 240 244 247 247 244 244 248 248 246 245 245 245 242 239 239 240 240 241 243 245 245 246 248 249 249 251 253 257 258 260 263 266 269 271 272 273 275 276 277 278 278
241 243 247 248 250 247 243 245 248 247 246 247 246 244 243 242 241 240 239 240 244 247 247 247 249 250 252 253 255 258 260 263 266 268 271 273 274 276 276 276 276 277 279
244 247 249 249 249 246 244 248 247 247 246 245 245 244 244 244 243 241 240 242 244 246 248 250 251 253 254 256 258 262 264 266 269 271 272 275 276 277 277 276 277 277 278
245 246 248 248 246 246 247 248 247 246 245 242 242 243 245 245 244 242 242 243 246 249 252 254 255 255 257 258 260 264 266 267 269 271 273 274 276 276 276 278 279 280 281
246 245 246 247 246 245 245 246 247 246 244 245 246 247 247 246 246 246 247 249 251 253 255 256 258 260 261 262 264 266 267 270 273 275 274 276 277 277 279 280 281 281 282
245 246 249 250 249 248 248 248 247 246 247 248 249 249 248 247 248 250 252 253 255 257 258 259 260 261 263 266 268 268 269 272 274 276 278 278 279 279 279 280 281 282 283
245 245 247 251 252 253 251 250 249 250 249 249 250 249 248 249 251 253 254 256 257 258 260 261 261 263 267 269 270 271 272 273 275 276 278 279 279 280 280 281 281 282 283
Height
5864 5864 5864 5865 5865 5866 5867 5868 5869 5870 5872 5873 5874 5875 5876 5878 5878 5879 5880 5881 5883 5884 5885 5887 5888 5888 5889 5890 5891 5891 5892 5893 5893 5894 5894 5894 5894 5894 5894 5894 5894 5893 5893
5861 5861 5862 5862 5862 5863 5863 5865 5866 5867 5869 5870 5871 5872 5873 5875 5876 5877 5878 5879 5880 5882 5883 5885 5886 5886 5887 5888 5889 5889 5890 5891 5892 5892 5892 5893 5894 5893 5893 5893 5892 5892 5891
5858 5858 5859 5859 5860 5860 5860 5862 5863 5864 5865 5867 5868 5870 5871 5872 5873 5874 5876 5877 5878 5879 5881 5882 5883 5884 5885 5886 5887 5888 5888 5889 5890 5890 5891 5891 5892 5891 5891 5891 5891 5890 5890
5855 5855 5856 5856 5857 5858 5858 5859 5860 5861 5863 5864 5866 5867 5868 5870 5871 5872 5873 5874 5876 5877 5878 5880 5881 5882 5883 5884 5885 5886 5887 5887 5888 5889 5889 5890 5890 5890 5890 5890 5890 5889 5888
5852 5852 5853 5854 5854 5855 5856 5856 5857 5859 5860 5862 5863 5865 5866 5867 5868 5870 5871 5872 5874 5875 5876 5877 5879 5880 5881 5882 5882 5883 5884 5885 5886 5887 5887 5887 5888 5888 5888 5888 5888 5888 5887
5849 5849 5850 5851 5851 5852 5853 5854 5855 5857 5858 5860 5861 5863 5864 5865 5866 5867 5869 5870 5871 5872 5873 5875 5876 5877 5879 5880 5881 5881 5882 5883 5884 5884 5885 5885 5886 5886 5887 5887 5886 5886 5886
5846 5846 5847 5847 5848 5849 5850 5851 5852 5854 5855 5857 5858 5860 5861 5862 5863 5864 5865 5867 5868 5869 5871 5872 5874 5875 5876 5877 5878 5879 5880 5881 5881 5882 5883 5883 5884 5884 5885 5885 5885 5885 5884
5842 5843 5843 5844 5845 5846 5847 5848 5849 5850 5852 5853 5855 5857 5858 5859 5860 5861 5863 5864 5865 5867 5868 5869 5871 5872 5873 5875 5876 5876 5877 5878 5879 5880 5881 5881 5882 5882 5882 5883 5883 5883 5882
5839 5839 5840 5841 5842 5842 5843 5845 5846 5847 5848 5850 5851 5853 5855 5856 5857 5859 5860 5861 5863 5864 5865 5866 5868 5869 5871 5872 5873 5874 5875 5876 5877 5877 5878 5879 5879 5880 5880 5880 5880 5881 5880
5835 5835 5836 5837 5838 5839 5840 5841 5842 5844 5845 5846 5848 5849 5851 5853 5854 5856 5857 5858 5860 5861 5862 5864 5865 5867 5868 5869 5870 5871 5872 5873 5874 5875 5876 5876 5877 5877 5877 5878 5877 5877 5877
5831 5831 5832 5833 5833 5835 5836 5837 5838 5840 5841 5843 5844 5846 5848 5850 5851 5853 5854 5855 5856 5858 5859 5861 5862 5863 5865 5866 5867 5868 5869 5870 5871 5872 5873 5874 5874 5875 5875 5875 5875 5874 5874
5826 5827 5828 5829 5829 5831 5832 5833 5835 5836 5838 5839 5841 5842 5844 5846 5848 5849 5850 5852 5853 5855 5856 5858 5859 5860 5862 5863 5864 5865 5866 5867 5868 5869 5870 5870 5871 5871 5871 5871 5871 5871 5871
5822 5823 5824 5825 5826 5827 5829 5830 5832 5833 5834 5836 5838 5839 5841 5843 5844 5846 5847 5848 5850 5851 5853 5854 5856 5857 5858 5859 5861 5862 5863 5864 5865 5866 5866 5867 5867 5868 5868 5868 5868 5867 5867
5818 5819 5820 5821 5823 5824 5825 5827 5828 5830 5831 5832 5834 5836 5838 5839 5841 5842 5844 5845 5847 5848 5849 5851 5852 5854 5855 5856 5857 5858 5859 5860 5861 5862 5862 5863 5863 5864 5864 5864 5864 5863 5863
5814 5815 5816 5817 5819 5820 5822 5823 5824 5826 5827 5828 5830 5832 5834 5835 5837 5839 5840 5842 5843 5845 5846 5847 5849 5850 5851 5852 5853 5854 5855 5856 5857 5858 5858 5859 5859 5859 5859 5860 5859 5859 5858
5810 5811 5812 5813 5815 5816 5817 5819 5820 5821 5823 5824 5826 5828 5830 5831 5833 5835 5837 5839 5840 5841 5842 5844 5845 5846 5847 5848 5849 5850 5851 5852 5852 5853 5854 5854 5854 5854 5855 5855 5855 5854 5854
5806 5807 5808 5809 5811 5812 5813 5814 5816 5817 5818 5820 5822 5824 5825 5827 5829 5831 5833 5835 5836 5837 5839 5840 5841 5842 5844 5845 5845 5846 5847 5848 5848 5849 5849 5849 5850 5850 5850 5850 5849 5849 5848
5802 5803 5804 5805 5807 5808 5809 5810 5811 5813 5814 5816 5818 5819 5821 5823 5825 5826 5829 5830 5832 5833 5835 5836 5837 5838 5839 5840 5841 5842 5843 5843 5844 5844 5845 5845 5845 5845 5845 5844 5844 5843 5843
5798 5799 5800 5802 5803 5804 5805 5806 5807 5809 5810 5812 5814 5815 5817 5818 5820 5822 5824 5826 5827 5829 5830 5832 5833 5834 5835 5836 5837 5837 5838 5839 5839 5839 5839 5839 5839 5839 5839 5838 5838 5837 5836
5795 5796 5797 5798 5799 5800 5801 5802 5803 5805 5806 5808 5809 5811 5813 5814 5816 5818 5819 5821 5823 5824 5825 5826 5828 5829 5830 5831 5832 5833 5833 5834 5834 5834 5834 5834 5833 5833 5832 5832 5831 5830 5829
5791 5792 5793 5794 5795 5796 5797 5798 5799 5801 5802 5803 5805 5807 5809 5810 5812 5813 5815 5816 5818 5819 5820 5821 5823 5824 5825 5826 5827 5827 5828 5828 5828 5828 5827 5827 5827 5826 5825 5825 5824 5823 5822
5787 5788 5789 5790 5792 5793 5794 5795 5796 5797 5798 5799 5801 5802 5804 5806 5807 5809 5810 5812 5813 5814 5815 5816 5817 5818 5820 5820 5821 5821 5822 5822 5821 5821 5821 5820 5820 5818 5818 5817 5816 5815 5814
5782 5784 5785 5786 5788 5789 5790 5791 5792 5793 5794 5796 5797 5798 5800 5802 5803 5804 5806 5807 5808 5809 5810 5811 5812 5813 5813 5814 5814 5815 5815 5814 5814 5814 5814 5813 5812 5811 5810 5809 5808 5807 5805
5778 5779 5781 5782 5783 5784 5785 5787 5787 5788 5790 5791 5793 5794 5795 5797 5798 5799 5800 5802 5803 5804 5805 5805 5806 5807 5807 5807 5808 5807 5807 5807 5807 5806 5806 5805 5804 5803 5802 5800 5799 5797 5796
5773 5774 5776 5777 5779 5780 5780 5782 5782 5783 5785 5786 5787 5789 5790 5792 5793 5794 5795 5796 5797 5798 5799 5799 5799 5800 5800 5801 5800 5800 5800 5799 5799 5798 5797 5796 5795 5794 5793 5791 5789 5788 5786
5767 5769 5770 5772 5773 5774 5775 5776 5778 5779 5780 5781 5783 5784 5785 5786 5788 5789 5790 5790 5792 5792 5792 5792 5793 5793 5793 5793 5792 5792 5791 5791 5790 5789 5788 5787 5785 5784 5782 5781 5779 5777 5775